When you browse on this site, cookies collect data to enhance your experience and personalize the content and advertising you see.
Visit our Privacy Policy to learn more. By continuing to use the site, you agree to this use of cookies and data.
  • In Czech Republic
  • List of Countries
  • For 7 days
  • Water Temperature
  • Weather Map
  • Weather Widgets
  • user-avatar
    Login

    Hourly Weather Kitzbuhel

    Today, 7 December, Saturday

    Time Temperature Precipitation Wind Pressure Humidity
    00:00 +1°C° 0 mm 2 mps 676 mmHg 53%
    01:00 +1°C° 0 mm 2 mps 675 mmHg 51%
    02:00 +1°C° 0 mm 2 mps 675 mmHg 52%
    03:00 +1°C° 0 mm 2 mps 675 mmHg 53%
    04:00 +3°C° 0 mm 1 mps 675 mmHg 53%
    05:00 +3°C° 0 mm 1 mps 675 mmHg 55%
    06:00 +3°C° 0 mm 1 mps 675 mmHg 56%
    07:00 +2°C° 0 mm 0 mps 675 mmHg 58%
    08:00 +4°C° 0 mm 1 mps 675 mmHg 60%
    09:00 +4°C° 0 mm 1 mps 676 mmHg 63%
    10:00 +5°C° 0 mm 1 mps 676 mmHg 65%
    11:00 +5°C° 0.2 mm 1 mps 676 mmHg 73%
    12:00 +4°C° 0.2 mm 1 mps 676 mmHg 81%
    13:00 +4°C° 0.2 mm 1 mps 676 mmHg 90%
    14:00 +4°C° 0.2 mm 1 mps 676 mmHg 92%
    15:00 +3°C° 0.2 mm 1 mps 676 mmHg 95%
    16:00 +3°C° 0.2 mm 1 mps 676 mmHg 98%
    17:00 +3°C° 0.1 mm 1 mps 676 mmHg 97%
    18:00 +3°C° 0.1 mm 1 mps 677 mmHg 96%
    19:00 +3°C° 0.1 mm 1 mps 677 mmHg 95%
    20:00 +3°C° 0 mm 1 mps 677 mmHg 94%
    21:00 +3°C° 0 mm 1 mps 677 mmHg 93%
    22:00 +2°C° 0 mm 1 mps 677 mmHg 92%
    23:00 +2°C° 0 mm 1 mps 677 mmHg 90%

    Tomorrow, 8 December, Sunday

    Time Temperature Precipitation Wind Pressure Humidity
    00:00 +2°C° 0 mm 1 mps 677 mmHg 88%
    01:00 +2°C° 0 mm 1 mps 677 mmHg 86%
    02:00 +2°C° 0 mm 1 mps 677 mmHg 82%
    03:00 +2°C° 0 mm 1 mps 676 mmHg 79%
    04:00 +1°C° 0 mm 1 mps 676 mmHg 75%
    05:00 +1°C° 0 mm 1 mps 676 mmHg 72%
    06:00 +1°C° 0 mm 1 mps 676 mmHg 69%
    07:00 -1°C° 0 mm 2 mps 676 mmHg 66%
    08:00 +3°C° 0 mm 1 mps 676 mmHg 64%
    09:00 +4°C° 0 mm 1 mps 676 mmHg 62%
    10:00 +5°C° 0 mm 1 mps 676 mmHg 60%
    11:00 +6°C° 0 mm 1 mps 675 mmHg 62%
    12:00 +7°C° 0 mm 1 mps 675 mmHg 64%
    13:00 +7°C° 0 mm 1 mps 674 mmHg 67%
    14:00 +6°C° 0 mm 1 mps 674 mmHg 65%
    15:00 +5°C° 0 mm 1 mps 673 mmHg 63%
    16:00 +4°C° 0 mm 1 mps 673 mmHg 62%
    17:00 +3°C° 0 mm 2 mps 673 mmHg 61%
    18:00 +3°C° 0 mm 2 mps 673 mmHg 60%
    19:00 +2°C° 0 mm 2 mps 672 mmHg 59%
    20:00 +3°C° 0 mm 2 mps 672 mmHg 59%
    21:00 +3°C° 0 mm 2 mps 672 mmHg 59%
    22:00 +3°C° 0 mm 2 mps 671 mmHg 60%
    23:00 +3°C° 0 mm 2 mps 671 mmHg 61%

    Day after tomorrow, 9 December, Monday

    Time Temperature Precipitation Wind Pressure Humidity
    00:00 +3°C° 0 mm 2 mps 671 mmHg 62%
    01:00 +4°C° 0 mm 1 mps 670 mmHg 63%
    02:00 +3°C° 0 mm 1 mps 670 mmHg 63%
    03:00 +3°C° 0 mm 1 mps 670 mmHg 64%
    04:00 +3°C° 0 mm 1 mps 669 mmHg 65%
    05:00 +3°C° 0.4 mm 1 mps 669 mmHg 72%
    06:00 +2°C° 0.4 mm 1 mps 669 mmHg 80%
    07:00 +2°C° 0.4 mm 1 mps 669 mmHg 87%
    08:00 +2°C° 0.4 mm 1 mps 669 mmHg 87%
    09:00 +3°C° 0.4 mm 1 mps 669 mmHg 86%
    10:00 +3°C° 0.4 mm 1 mps 669 mmHg 86%
    11:00 +4°C° 0 mm 1 mps 669 mmHg 83%
    12:00 +5°C° 0 mm 1 mps 668 mmHg 80%
    13:00 +5°C° 0 mm 1 mps 668 mmHg 77%
    14:00 +4°C° 0 mm 1 mps 668 mmHg 79%
    15:00 +2°C° 0 mm 0 mps 667 mmHg 81%
    16:00 +1°C° 0 mm 0 mps 667 mmHg 84%
    17:00 +2°C° 0.1 mm 1 mps 668 mmHg 85%
    18:00 +2°C° 0.1 mm 1 mps 668 mmHg 86%
    19:00 +2°C° 0.1 mm 1 mps 669 mmHg 88%
    20:00 +2°C° 0.7 mm 1 mps 670 mmHg 89%
    21:00 -1°C° 0.7 mm 2 mps 670 mmHg 91%
    22:00 -1°C° 0.7 mm 3 mps 671 mmHg 93%
    23:00 -2°C° 0.3 mm 2 mps 671 mmHg 93%

    10 December, Tuesday

    Time Temperature Precipitation Wind Pressure Humidity
    00:00 -3°C° 0.3 mm 2 mps 672 mmHg 92%
    01:00 -2°C° 0.3 mm 1 mps 672 mmHg 92%
    02:00 -2°C° 0.1 mm 1 mps 672 mmHg 92%
    03:00 -1°C° 0.1 mm 1 mps 673 mmHg 91%
    04:00 -1°C° 0.1 mm 1 mps 673 mmHg 91%
    05:00 -3°C° 0.6 mm 2 mps 674 mmHg 93%
    06:00 -3°C° 0.6 mm 2 mps 675 mmHg 94%
    07:00 -3°C° 0.6 mm 2 mps 676 mmHg 96%
    08:00 -2°C° 0.9 mm 2 mps 676 mmHg 94%
    09:00 -2°C° 0.9 mm 2 mps 677 mmHg 93%
    10:00 -2°C° 0.9 mm 3 mps 678 mmHg 91%
    11:00 -2°C° 0.2 mm 3 mps 678 mmHg 88%
    12:00 -2°C° 0.2 mm 3 mps 678 mmHg 84%
    13:00 -2°C° 0.2 mm 2 mps 678 mmHg 81%
    14:00 -3°C° 0.1 mm 2 mps 679 mmHg 85%
    15:00 -2°C° 0.1 mm 1 mps 679 mmHg 89%
    16:00 -3°C° 0.1 mm 1 mps 679 mmHg 93%
    17:00 -3°C° 0 mm 1 mps 679 mmHg 91%
    18:00 -4°C° 0 mm 1 mps 679 mmHg 90%
    19:00 -6°C° 0 mm 1 mps 679 mmHg 89%
    20:00 -6°C° 0 mm 1 mps 679 mmHg 83%
    21:00 -6°C° 0 mm 1 mps 679 mmHg 77%
    22:00 -7°C° 0 mm 2 mps 679 mmHg 71%
    23:00 -7°C° 0 mm 2 mps 678 mmHg 66%

    11 December, Wednesday

    Time Temperature Precipitation Wind Pressure Humidity
    00:00 -7°C° 0 mm 2 mps 678 mmHg 62%
    01:00 -7°C° 0 mm 2 mps 678 mmHg 57%
    02:00 -6°C° 0 mm 2 mps 677 mmHg 54%
    03:00 -6°C° 0 mm 2 mps 676 mmHg 50%
    04:00 -6°C° 0 mm 2 mps 676 mmHg 46%
    05:00 -5°C° 0 mm 2 mps 676 mmHg 44%
    06:00 -5°C° 0 mm 2 mps 675 mmHg 42%
    07:00 -4°C° 0 mm 2 mps 675 mmHg 41%
    08:00 -1°C° 0 mm 1 mps 675 mmHg 42%
    09:00 +1°C° 0 mm 1 mps 676 mmHg 44%
    10:00 +2°C° 0 mm 1 mps 676 mmHg 46%
    11:00 +3°C° 0 mm 1 mps 675 mmHg 49%
    12:00 +3°C° 0 mm 0 mps 675 mmHg 53%
    13:00 +4°C° 0 mm 0 mps 674 mmHg 57%
    14:00 +3°C° 0 mm 0 mps 674 mmHg 55%
    15:00 +2°C° 0 mm 0 mps 674 mmHg 54%
    16:00 0°C° 0 mm 0 mps 673 mmHg 52%
    17:00 0°C° 0 mm 0 mps 673 mmHg 52%
    18:00 0°C° 0 mm 0 mps 673 mmHg 52%
    19:00 +1°C° 0 mm 1 mps 673 mmHg 53%
    20:00 0°C° 0.1 mm 0 mps 673 mmHg 58%
    21:00 -1°C° 0.1 mm 0 mps 673 mmHg 63%
    22:00 -1°C° 0.1 mm 0 mps 673 mmHg 68%
    23:00 -1°C° 0.4 mm 0 mps 672 mmHg 76%

    12 December, Thursday

    Time Temperature Precipitation Wind Pressure Humidity
    00:00 -1°C° 0.4 mm 0 mps 672 mmHg 84%
    01:00 -1°C° 0.4 mm 1 mps 672 mmHg 93%
    02:00 -1°C° 0.4 mm 1 mps 672 mmHg 94%
    03:00 0°C° 0.4 mm 1 mps 672 mmHg 95%
    04:00 0°C° 0.4 mm 1 mps 672 mmHg 96%
    05:00 -1°C° 0.2 mm 1 mps 672 mmHg 94%
    06:00 -1°C° 0.2 mm 1 mps 672 mmHg 92%
    07:00 -1°C° 0.2 mm 1 mps 672 mmHg 90%
    08:00 -1°C° 0.1 mm 1 mps 672 mmHg 89%
    09:00 0°C° 0.1 mm 1 mps 672 mmHg 88%
    10:00 -1°C° 0.1 mm 0 mps 673 mmHg 87%
    11:00 0°C° 0.1 mm 1 mps 672 mmHg 86%
    12:00 +1°C° 0.1 mm 1 mps 672 mmHg 84%
    13:00 +1°C° 0.1 mm 1 mps 672 mmHg 82%
    14:00 0°C° 0 mm 1 mps 671 mmHg 85%
    15:00 -2°C° 0 mm 0 mps 671 mmHg 88%
    16:00 -3°C° 0 mm 0 mps 670 mmHg 92%
    17:00 -3°C° 0 mm 1 mps 670 mmHg 89%
    18:00 -3°C° 0 mm 1 mps 670 mmHg 86%
    19:00 -6°C° 0 mm 2 mps 670 mmHg 83%
    20:00 -6°C° 0 mm 2 mps 669 mmHg 80%
    21:00 -7°C° 0 mm 3 mps 669 mmHg 77%
    22:00 -7°C° 0 mm 3 mps 668 mmHg 74%
    23:00 -7°C° 0 mm 3 mps 667 mmHg 73%
    Show more